| time (UTC) | temp C | wind direction | speed KPH | gust KPH | rain 1hr cm | rain 24hr cm | rain mn cm | humidity % | barometer mb |
| 20260906233800 | 20 | 209 | 4.8 | 11.3 | 0.00 | 0.00 | 0.00 | 47 | 1013.7 |
| 20260906232802 | 21 | 194 | 6.4 | 9.7 | 0.00 | 0.00 | 0.00 | 46 | 1013.6 |
| 20260906231758 | 21 | 185 | 6.4 | 14.5 | 0.00 | 0.00 | 0.00 | 45 | 1013.8 |
| 20260906230758 | 21 | 193 | 11.3 | 24.1 | 0.00 | 0.00 | 0.00 | 42 | 1013.7 |
| 20260906225756 | 21 | 237 | 9.7 | 20.9 | 0.00 | 0.00 | 0.00 | 42 | 1014.3 |
| 20260906224752 | 21 | 233 | 8.0 | 17.7 | 0.00 | 0.00 | 0.00 | 42 | 1014.5 |
| 20260906222751 | 21 | 239 | 8.0 | 16.1 | 0.00 | 0.00 | 0.00 | 41 | 1014.7 |
| 20260906221749 | 22 | 203 | 9.7 | 20.9 | 0.00 | 0.00 | 0.00 | 40 | 1014.8 |
| 20260906214745 | 22 | 267 | 14.5 | 24.1 | 0.00 | 0.00 | 0.00 | 39 | 1015.2 |
| 20260906213744 | 21 | 262 | 12.9 | 20.9 | 0.00 | 0.00 | 0.00 | 40 | 1015.0 |
| 20260906212744 | 22 | 212 | 16.1 | 25.7 | 0.00 | 0.00 | 0.00 | 39 | 1015.2 |
| 20260906211742 | 22 | 207 | 16.1 | 27.4 | 0.00 | 0.00 | 0.00 | 38 | 1015.4 |
| 20260906210742 | 22 | 262 | 12.9 | 25.7 | 0.00 | 0.00 | 0.00 | 40 | 1015.8 |
| 20260906205742 | 22 | 226 | 16.1 | 24.1 | 0.00 | 0.00 | 0.00 | 40 | 1015.9 |
| 20260906204740 | 22 | 207 | 17.7 | 30.6 | 0.00 | 0.00 | 0.00 | 36 | 1015.6 |
| 20260906203735 | 22 | 235 | 17.7 | 29.0 | 0.00 | 0.00 | 0.00 | 36 | 1015.8 |
| 20260906202733 | 22 | 217 | 17.7 | 29.0 | 0.00 | 0.00 | 0.00 | 38 | 1015.9 |
| 20260906201734 | 22 | 241 | 20.9 | 35.4 | 0.00 | 0.00 | 0.00 | 38 | 1015.8 |
| 20260906200731 | 22 | 211 | 17.7 | 29.0 | 0.00 | 0.00 | 0.00 | 38 | 1015.9 |
| 20260906195730 | 22 | 162 | 16.1 | 33.8 | 0.00 | 0.00 | 0.00 | 37 | 1015.8 |
| 20260906193728 | 22 | 185 | 22.5 | 45.1 | 0.00 | 0.00 | 0.00 | 36 | 1016.1 |
| 20260906191726 | 22 | 180 | 22.5 | 37.0 | 0.00 | 0.00 | 0.00 | 33 | 1016.2 |
| 20260906190722 | 23 | 233 | 24.1 | 38.6 | 0.00 | 0.00 | 0.00 | 33 | 1016.9 |
| 20260906185721 | 23 | 154 | 14.5 | 37.0 | 0.00 | 0.00 | 0.00 | 34 | 1016.9 |
| 20260906184720 | 21 | 166 | 14.5 | 30.6 | 0.00 | 0.00 | 0.00 | 35 | 1016.0 |
| 20260906182717 | 22 | 180 | 24.1 | 48.3 | 0.00 | 0.00 | 0.00 | 33 | 1016.5 |
| 20260906181717 | 23 | 237 | 20.9 | 37.0 | 0.00 | 0.00 | 0.00 | 30 | 1017.2 |
| 20260906180713 | 23 | 193 | 19.3 | 33.8 | 0.00 | 0.00 | 0.00 | 31 | 1016.9 |
| 20260906175712 | 23 | 185 | 19.3 | 37.0 | 0.00 | 0.00 | 0.00 | 32 | 1017.0 |
| 20260906174713 | 23 | 244 | 20.9 | 37.0 | 0.00 | 0.00 | 0.00 | 32 | 1016.9 |
| 20260906173709 | 23 | 148 | 19.3 | 40.2 | 0.00 | 0.00 | 0.00 | 36 | 1017.6 |
| 20260906172707 | 23 | 228 | 19.3 | 41.8 | 0.00 | 0.00 | 0.00 | 32 | 1017.5 |
| 20260906171707 | 23 | 212 | 17.7 | 32.2 | 0.00 | 0.00 | 0.00 | 32 | 1017.3 |
| 20260906170708 | 22 | 175 | 16.1 | 35.4 | 0.00 | 0.00 | 0.00 | 36 | 1017.6 |
| 20260906165703 | 22 | 210 | 17.7 | 35.4 | 0.00 | 0.00 | 0.00 | 34 | 1017.5 |
| 20260906164702 | 22 | 180 | 16.1 | 32.2 | 0.00 | 0.00 | 0.00 | 35 | 1017.6 |
| 20260906163701 | 22 | 154 | 14.5 | 32.2 | 0.00 | 0.00 | 0.00 | 38 | 1017.6 |
| 20260906162700 | 21 | 143 | 17.7 | 32.2 | 0.00 | 0.00 | 0.00 | 37 | 1017.2 |
| 20260906161658 | 21 | 200 | 12.9 | 29.0 | 0.00 | 0.00 | 0.00 | 38 | 1017.5 |
| 20260906160656 | 21 | 180 | 12.9 | 30.6 | 0.00 | 0.00 | 0.00 | 37 | 1017.3 |
| 20260906155657 | 21 | 170 | 9.7 | 22.5 | 0.00 | 0.00 | 0.00 | 40 | 1017.6 |
| 20260906154653 | 20 | 185 | 8.0 | 16.1 | 0.00 | 0.00 | 0.00 | 42 | 1016.9 |
| 20260906153651 | 19 | 208 | 4.8 | 14.5 | 0.00 | 0.00 | 0.00 | 47 | 1016.1 |
| 20260906152652 | 18 | 249 | 3.2 | 11.3 | 0.00 | 0.00 | 0.00 | 45 | 1015.5 |
| 20260906151652 | 17 | 90 | 3.2 | 8.0 | 0.00 | 0.00 | 0.00 | 45 | 1014.9 |
| 20260906150648 | 16 | 198 | 3.2 | 8.0 | 0.00 | 0.00 | 0.00 | 49 | 1014.2 |
| 20260906145638 | 15 | 308 | 4.8 | 11.3 | 0.00 | 0.00 | 0.00 | 51 | 1013.3 |
| 20260906144635 | 14 | 315 | 4.8 | 11.3 | 0.00 | 0.00 | 0.00 | 52 | 1012.8 |
| 20260906143637 | 13 | 303 | 3.2 | 8.0 | 0.00 | 0.00 | 0.00 | 56 | 1012.2 |
| 20260906142637 | 13 | 318 | 0.0 | 3.2 | 0.00 | 0.00 | 0.00 | 54 | 1011.9 |
| 20260906141628 | 12 | 292 | 0.0 | 3.2 | 0.00 | 0.00 | 0.00 | 54 | 1011.5 |
| 20260906134555 | 11 | 23 | 0.0 | 3.2 | 0.00 | 0.00 | 0.00 | 56 | 1010.4 |
| 20260906133553 | 11 | 180 | 0.0 | 1.6 | 0.00 | 0.00 | 0.00 | 56 | 1010.2 |
| 20260906132551 | 11 | 180 | 0.0 | 4.8 | 0.00 | 0.00 | 0.00 | 56 | 1010.1 |
| 20260906131552 | 11 | 180 | 0.0 | 0.0 | 0.00 | 0.00 | 0.00 | 55 | 1010.1 |
| 20260906130551 | 10 | 180 | 0.0 | 0.0 | 0.00 | 0.00 | 0.00 | 56 | 1009.7 |
| 20260906125545 | 11 | 180 | 0.0 | 3.2 | 0.00 | 0.00 | 0.00 | 56 | 1009.9 |
| 20260906124543 | 11 | 180 | 0.0 | 1.6 | 0.00 | 0.00 | 0.00 | 54 | 1009.9 |
| 20260906123509 | 11 | 180 | 0.0 | 4.8 | 0.00 | 0.00 | 0.00 | 54 | 1010.1 |
| 20260906122457 | 11 | 180 | 0.0 | 3.2 | 0.00 | 0.00 | 0.00 | 54 | 1009.9 |
| 20260906121453 | 11 | 180 | 1.6 | 4.8 | 0.00 | 0.00 | 0.00 | 54 | 1009.8 |
| 20260906115435 | 11 | 180 | 0.0 | 3.2 | 0.00 | 0.00 | 0.00 | 54 | 1009.8 |
| 20260906114410 | 10 | 180 | 0.0 | 4.8 | 0.00 | 0.00 | 0.00 | 55 | 1009.6 |
| 20260906113348 | 10 | 180 | 1.6 | 6.4 | 0.00 | 0.00 | 0.00 | 55 | 1009.8 |
| 20260906112344 | 10 | 180 | 0.0 | 1.6 | 0.00 | 0.00 | 0.00 | 55 | 1009.6 |
| 20260906111342 | 10 | 180 | 0.0 | 3.2 | 0.00 | 0.00 | 0.00 | 55 | 1009.5 |
| 20260906110338 | 10 | 180 | 3.2 | 6.4 | 0.00 | 0.00 | 0.00 | 56 | 1009.5 |
| 20260906104318 | 10 | 180 | 1.6 | 6.4 | 0.00 | 0.00 | 0.00 | 56 | 1009.2 |
| 20260906102318 | 10 | 180 | 1.6 | 8.0 | 0.00 | 0.00 | 0.00 | 58 | 1008.8 |
| 20260906101315 | 10 | 180 | 3.2 | 9.7 | 0.00 | 0.00 | 0.00 | 59 | 1008.7 |
| 20260906100312 | 10 | 180 | 1.6 | 6.4 | 0.00 | 0.00 | 0.00 | 58 | 1008.8 |
| 20260906094306 | 10 | 180 | 3.2 | 9.7 | 0.00 | 0.00 | 0.00 | 56 | 1009.0 |
| 20260906093301 | 10 | 180 | 3.2 | 6.4 | 0.00 | 0.00 | 0.00 | 57 | 1008.8 |
| 20260906092259 | 10 | 180 | 3.2 | 6.4 | 0.00 | 0.00 | 0.00 | 58 | 1008.8 |
| 20260906091254 | 10 | 180 | 1.6 | 6.4 | 0.00 | 0.00 | 0.00 | 57 | 1008.8 |
| 20260906085252 | 10 | 180 | 1.6 | 6.4 | 0.00 | 0.00 | 0.00 | 58 | 1008.6 |
| 20260906084251 | 10 | 180 | 0.0 | 1.6 | 0.00 | 0.00 | 0.00 | 59 | 1008.6 |
| 20260906083252 | 10 | 180 | 0.0 | 3.2 | 0.00 | 0.00 | 0.00 | 59 | 1008.7 |
| 20260906082251 | 10 | 180 | 0.0 | 4.8 | 0.00 | 0.00 | 0.00 | 58 | 1009.0 |
| 20260906081249 | 11 | 180 | 0.0 | 1.6 | 0.00 | 0.00 | 0.00 | 57 | 1009.2 |
| 20260906080250 | 11 | 180 | 1.6 | 4.8 | 0.00 | 0.00 | 0.00 | 57 | 1009.2 |
| 20260906075250 | 11 | 180 | 1.6 | 4.8 | 0.00 | 0.00 | 0.00 | 57 | 1009.2 |
| 20260906074250 | 11 | 180 | 1.6 | 3.2 | 0.00 | 0.00 | 0.00 | 56 | 1009.5 |
| 20260906073247 | 11 | 180 | 1.6 | 3.2 | 0.00 | 0.00 | 0.00 | 51 | 1009.8 |
| 20260906072248 | 12 | 63 | 3.2 | 8.0 | 0.00 | 0.00 | 0.00 | 51 | 1009.7 |
| 20260906071248 | 12 | 38 | 1.6 | 6.4 | 0.00 | 0.00 | 0.00 | 51 | 1009.7 |
| 20260906070247 | 12 | 62 | 1.6 | 4.8 | 0.00 | 0.00 | 0.00 | 51 | 1009.7 |
| 20260906064246 | 11 | 180 | 1.6 | 6.4 | 0.00 | 0.00 | 0.00 | 51 | 1009.5 |
| 20260906063243 | 11 | 25 | 1.6 | 4.8 | 0.00 | 0.00 | 0.00 | 52 | 1009.5 |
| 20260906062242 | 12 | 39 | 1.6 | 4.8 | 0.00 | 0.00 | 0.00 | 51 | 1009.7 |
| 20260906061242 | 12 | 39 | 1.6 | 8.0 | 0.00 | 0.00 | 0.00 | 51 | 1009.7 |
| 20260906060245 | 12 | 39 | 1.6 | 6.4 | 0.00 | 0.00 | 0.00 | 49 | 1009.9 |
| 20260906055240 | 12 | 37 | 1.6 | 6.4 | 0.00 | 0.00 | 0.00 | 49 | 1009.9 |
| 20260906054229 | 12 | 327 | 1.6 | 6.4 | 0.00 | 0.00 | 0.00 | 50 | 1009.7 |
| 20260906053229 | 12 | 35 | 1.6 | 6.4 | 0.00 | 0.00 | 0.00 | 51 | 1009.9 |
| 20260906052216 | 13 | 33 | 1.6 | 4.8 | 0.00 | 0.00 | 0.00 | 49 | 1010.5 |
| 20260906051217 | 13 | 337 | 0.0 | 3.2 | 0.00 | 0.00 | 0.00 | 45 | 1010.5 |
| 20260906050220 | 13 | 39 | 0.0 | 1.6 | 0.00 | 0.00 | 0.00 | 46 | 1010.5 |
| 20260906045218 | 13 | 39 | 1.6 | 6.4 | 0.00 | 0.00 | 0.00 | 45 | 1010.4 |
| 20260906044213 | 13 | 72 | 0.0 | 4.8 | 0.00 | 0.00 | 0.00 | 46 | 1010.9 |
| 20260906043214 | 14 | 78 | 0.0 | 0.0 | 0.00 | 0.00 | 0.00 | 43 | 1010.9 |
| 20260906042151 | 15 | 78 | 0.0 | 1.6 | 0.00 | 0.00 | 0.00 | 43 | 1011.5 |
| 20260906041122 | 14 | 72 | 1.6 | 4.8 | 0.00 | 0.00 | 0.00 | 44 | 1011.0 |
| 20260906040119 | 14 | 43 | 0.0 | 4.8 | 0.00 | 0.00 | 0.00 | 47 | 1010.9 |
| 20260906034055 | 15 | 39 | 1.6 | 4.8 | 0.00 | 0.00 | 0.00 | 44 | 1011.2 |
| 20260906033053 | 15 | 52 | 1.6 | 6.4 | 0.00 | 0.00 | 0.00 | 44 | 1011.2 |
| 20260906032052 | 15 | 48 | 1.6 | 4.8 | 0.00 | 0.00 | 0.00 | 43 | 1010.9 |
| 20260906031053 | 16 | 77 | 1.6 | 4.8 | 0.00 | 0.00 | 0.00 | 40 | 1011.3 |
| 20260906024052 | 18 | 113 | 0.0 | 0.0 | 0.00 | 0.00 | 0.00 | 34 | 1012.6 |
| 20260906023009 | 18 | 113 | 0.0 | 0.0 | 0.00 | 0.00 | 0.00 | 33 | 1012.4 |
| 20260906022007 | 18 | 113 | 0.0 | 0.0 | 0.00 | 0.00 | 0.00 | 34 | 1012.5 |
| 20260906015938 | 20 | 113 | 0.0 | 0.0 | 0.00 | 0.00 | 0.00 | 32 | 1013.7 |
| 20260906014929 | 21 | 113 | 0.0 | 3.2 | 0.00 | 0.00 | 0.00 | 31 | 1014.3 |
| 20260906013908 | 22 | 113 | 1.6 | 3.2 | 0.00 | 0.00 | 0.00 | 31 | 1014.8 |
| 20260906012910 | 22 | 113 | 0.0 | 3.2 | 0.00 | 0.00 | 0.00 | 31 | 1015.4 |
| 20260906011906 | 23 | 168 | 1.6 | 4.8 | 0.00 | 0.00 | 0.00 | 29 | 1015.9 |
| 20260906010901 | 24 | 191 | 4.8 | 9.7 | 0.00 | 0.00 | 0.00 | 27 | 1016.5 |
| 20260906005858 | 25 | 237 | 8.0 | 17.7 | 0.00 | 0.00 | 0.00 | 25 | 1016.7 |
| 20260906004853 | 25 | 215 | 9.7 | 20.9 | 0.00 | 0.00 | 0.00 | 24 | 1017.2 |
| 20260906003851 | 25 | 264 | 9.7 | 20.9 | 0.00 | 0.00 | 0.00 | 22 | 1017.2 |
| 20260906001848 | 26 | 237 | 9.7 | 20.9 | 0.00 | 0.00 | 0.00 | 23 | 1017.3 |
| 20260906000848 | 26 | 243 | 12.9 | 24.1 | 0.00 | 0.00 | 0.00 | 23 | 1017.3 |
| 20260905235847 | 26 | 252 | 12.9 | 22.5 | 0.00 | 0.00 | 0.00 | 22 | 1017.5 |